Location: Newark
(45.2633°N, 19.8417°E)
Time: 05:22:21
(UTC+00:00)

ISS - Visible Passes

Search period start: 24 June 2021 00:00
Search period end: 04 July 2021 00:00
Orbit: 417 x 422 km, 51.6° (Epoch: 23 June)

Date Brightness Start Highest point End Pass type
(mag) Time Alt. Az. Time Alt. Az. Time Alt. Az.
27 Jun -2.1 02:14:14 10° SSW 02:17:05 26° SE 02:19:56 10° E visible
28 Jun -1.6 01:27:51 11° S 01:29:47 16° SE 01:31:59 10° E visible
29 Jun -3.6 02:15:25 10° SW 02:18:46 66° SE 02:22:06 10° ENE visible
30 Jun -3.0 01:29:23 20° SSW 01:31:21 41° SE 01:34:33 10° ENE visible
01 Jul -2.4 00:43:36 25° SSE 00:43:59 26° SE 00:46:51 10° E visible
01 Jul -1.4 23:57:46 14° ESE 23:57:46 14° ESE 23:58:54 10° E visible
02 Jul -3.7 01:30:43 18° WSW 01:33:07 81° NNW 01:36:30 10° ENE visible
03 Jul -3.8 00:44:49 45° SSW 00:45:39 66° SSE 00:49:00 10° ENE visible
03 Jul -2.2 02:19:33 10° W 02:22:39 33° NNW 02:25:46 10° NE visible
